Location: Julian California
(33.0790°N, 116.6010°W)
Time: 13:39:51
(UTC-07:00)

Cosmos 1818 - Pass Details

Date: 12 July 2018
Orbit: 772 x 801 km, 65.0° (Epoch: 22 July)

Event Time Altitude Azimuth Distance (km) Brightness Sun altitude
Rises 20:47:29 0° 337° (NNW) 3,309 7.8 -9.9°
Reaches altitude 10° 20:50:01 10° 343° (NNW) 2,375 6.9 -10.3°
Maximum altitude 20:55:18 49° 58° (ENE) 1,023 4.0 -11.2°
Enters shadow 20:59:25 16° 129° (SE) 1,958 4.9 -11.9°
